Regional Weather Roundup
Issued by NWS

Home | Current Version | Previous Version | Graphics & Text | Print | Product List | Glossary On
Versions: 1 2 3 4 5 6 7 8 9 10 11 12 13 14 15 16 17 18 19 20 21 22 23 24 25 26 27 28 29 30 31 32 33 34 35 36 37 38 39 40 41 42 43 44 45 46 47 48 49 50
000
ASUS43 KLOT 221303
RWRIL

ILLINOIS REGIONAL WEATHER ROUNDUP
NATIONAL WEATHER SERVICE CHICAGO/ROMEOVILLE IL
800 AM CDT MON MAY 22 2017

NOTE: "FAIR" INDICATES FEW OR NO CLOUDS BELOW 12,000 FEET WITH NO
SIGNIFICANT WEATHER AND/OR OBSTRUCTIONS TO VISIBILITY.

* THESE STATIONS ARE NOT UNDER NWS QUALITY CONTROL. THEY ALSO MAY NOT
  REPORT WEATHER SUCH AS PRECIPITATION OR FOG.

ILZ001-002-007-009-015-016-024-221400-
NORTHWEST ILLINOIS

CITY           SKY/WX    TMP DP  RH WIND       PRES   REMARKS
MOLINE         SUNNY     57  46  66 SW10      30.02F
STERLING*      SUNNY     54  46  74 VRB5      30.04S
SAVANNA*       SUNNY     54  46  75 S8        30.02F
$$

ILZ003-004-008-010-011-017-018-221400-
NORTH CENTRAL ILLINOIS

CITY           SKY/WX    TMP DP  RH WIND       PRES   REMARKS
ROCKFORD       SUNNY     53  44  71 SW7       30.05R
FREEPORT*      SUNNY     50  44  80 SW12      30.03S
ROCHELLE*      SUNNY     52  46  80 SW12      30.05S
DE KALB*       SUNNY     52  45  76 SW10      30.04S
PERU*          SUNNY     54  44  71 SW9       30.07S
$$

ILZ005-006-012>014-019>023-221400-
NORTHEAST ILLINOIS

CITY           SKY/WX    TMP DP  RH WIND       PRES   REMARKS
CHICAGO-OHARE  MOSUNNY   53  43  68 SW12      30.04R
CHICAGO-MIDWAY MOSUNNY   54  44  69 SW12      30.05R
AURORA         SUNNY     53  46  77 SW13      30.05S
LANSING*       SUNNY     55  46  73 W13       30.07S
WAUKEGAN       SUNNY     53  43  68 SW8       30.00R
DUPAGE AIRPORT SUNNY     52  46  80 SW12      30.04R
KANKAKEE*      SUNNY     56  47  70 SW7       30.09S
WHEELING       SUNNY     53  44  71 W10       30.04R
MORRIS*        SUNNY     55  45  70 SW8       30.06S
ROMEOVILLE*    SUNNY     54  48  80 SW9       30.06S
NORTHERLY ISL    N/A     53  42  66 S8          N/A
$$

LMZ740>746-221400-
SOUTHERN LAKE MICHIGAN

STATION/POSITION SKY/WX   TEMP    WIND        PRES    VSBY  WAVE
                          AIR SEA DIR/SP/G                  HT/PER
                          (F)     (DEG/KT/KT) (MB)    (MI)  (FT/S)
SOUTHERN BUOY              47 44  260/ 14/ 16 1015.5          3/ 4
WILMETTE HARBOR            51 52                N/A           1/ 2
HARRISON CRIB              53     240/  9/ 12   N/A
BURNHAM HARBOR             54     190/  4/ 11   N/A
CALUMET HARBOR             52     210/  7/ 14 1017.0S
BURNS HARBOR               54     240/ 10/ 14 1018.3R
MICHIGAN CITY              52     220/ 15/ 17   N/A
MICHIGAN CITY 6N           51 52  240/ 12/ 16   N/A           3/ 4
ST. JOSEPH                 52 54  250/ 16/ 19 1018.1R         4/ 4
$$

ILZ025>027-034>036-040-047-049-050-058-095>099-221400-
WEST-CENTRAL ILLINOIS

CITY           SKY/WX    TMP DP  RH WIND       PRES   REMARKS
QUINCY         SUNNY     57  50  77 SW12      30.08S
GALESBURG*     SUNNY     55  48  79 S12       30.04F
MACOMB*        SUNNY     56  48  74 SW12      30.08F
JACKSONVILLE*  MOSUNNY   58  49  71 SW6       30.10S
PITTSFIELD*    SUNNY     60  49  66 S5        30.11S
$$

ILZ028>032-037-038-041>044-048-051>054-059>061-221400-
CENTRAL ILLINOIS

CITY           SKY/WX    TMP DP  RH WIND       PRES   REMARKS
PONTIAC        SUNNY     56  49  77 SW10      30.08F
BLOOMINGTON    SUNNY     56  47  71 SW9       30.09F
DECATUR        MOSUNNY   56  50  80 SW7       30.11S
PEORIA         SUNNY     56  49  77 SW7       30.07F
LACON*         SUNNY     55  49  79 SW7       30.05F
LINCOLN*       SUNNY     58  51  77 S5        30.09S
SPRINGFIELD    MOSUNNY   59  52  77 S7        30.10F
TAYLORVILLE    MOSUNNY   55  52  89 S6        30.12S
$$

ILZ033-039-045-046-055>057-062-063-221400-
EAST-CENTRAL ILLINOIS

CITY           SKY/WX    TMP DP  RH WIND       PRES   REMARKS
CHAMPAIGN      SUNNY     55  49  80 SW10      30.12R
RANTOUL*       SUNNY     58  50  75 SW6       30.11R
MATTOON        CLOUDY    55  52  89 S7        30.13R
PARIS*         CLOUDY    56  50  81 SW8       30.14R
$$

ILZ079-100>102-221400-
SOUTHWEST ILLINOIS

CITY           SKY/WX    TMP DP  RH WIND       PRES   REMARKS
ALTON          PTSUNNY   55  52  88 S6        30.15R
BELLEVILLE     PTSUNNY   55  52  88 CALM      30.15F
CAHOKIA*       CLOUDY    58  52  80 CALM      30.14S
SPARTA*        CLOUDY    57  52  83 S3        30.16F
$$

ILZ064>066-069>071-074>076-080>082-084>086-088>090-092>094-221400-
SOUTH-CENTRAL ILLINOIS

CITY           SKY/WX    TMP DP  RH WIND       PRES   REMARKS
CARBONDALE     CLOUDY    59  55  87 CALM      30.16F
CAIRO*         CLOUDY    61  53  74 NE3       30.16S
EFFINGHAM*     CLOUDY    55  54  99 S5        30.17R
MT. VERNON       N/A     58  55  90 SW3       30.17S
CENTRALIA*     CLOUDY    59  54  84 S8        30.15F
SALEM*         CLOUDY    58  52  79 S6        30.16S
$$

ILZ067-068-072-073-078-083-087-091-221400-
SOUTHEAST ILLINOIS

CITY           SKY/WX    TMP DP  RH WIND       PRES   REMARKS
LAWRENCEVILLE  CLOUDY    58  53  84 S7        30.18R
FLORA*         MOSUNNY   58  53  81 SW3       30.17S
FAIRFIELD*     MOSUNNY   59  52  78 CALM      30.16F
HARRISBURG*    MOSUNNY   59  54  82 CALM      30.17S
ROBINSON*      CLOUDY    55  51  86 S6        30.19R
CARMI*         MOSUNNY   62  54  74 S5        30.17S
$$

ABBREVIATIONS USED IN REMARKS
   TC - TEMPERATURE IN CELSIUS
  WCI - WIND CHILL INDEX
   HX - HEAT INDEX
  VSB - VISIBILITY
$$





USA.gov is the U.S. government's official web portal to all federal, state and local government web resources and services.